Location: York
(31.8935°S, 116.7682°E)
Time: 05:49:00
(UTC+08:00)

Envisat - Pass Details

Date: 07 December 2021
Orbit: 764 x 766 km, 98.2° (Epoch: 16 January)

Event Time Altitude Azimuth Distance (km) Brightness Sun altitude
Rises 03:41:30 0° 39° (NE) 3,220 6.2 -14.7°
Reaches altitude 10° 03:44:02 10° 50° (NE) 2,302 5.6 -14.3°
Maximum altitude 03:48:24 30° 109° (ESE) 1,360 5.1 -13.6°
Drops below altitude 10° 03:52:49 10° 169° (S) 2,327 6.2 -12.8°
Sets 03:55:23 0° 179° (S) 3,261 6.8 -12.4°
